GW6391 Weather Reports


time (UTC)temp
C
wind
direction
speed
KPH
gust
KPH
rain 1hr
cm
rain 24hr
cm
rain mn
cm
humidity
%
barometer
mb
20260507190051 21 267 25.7 37.0 0.00 0.00 0.00 27 1011.4
20260507185513 20 280 20.9 33.8 0.00 0.00 0.00 28 1011.4
20260507185012 20 320 25.7 33.8 0.00 0.00 0.00 29 1011.5
20260507184547 21 300 22.5 33.8 0.00 0.00 0.00 29 1011.4
20260507184015 21 242 16.1 30.6 0.00 0.00 0.00 29 1011.4
20260507183513 20 327 16.1 37.0 0.00 0.00 0.00 30 1011.7
20260507183049 20 299 20.9 41.8 0.00 0.00 0.00 30 1011.8
20260507182514 21 283 20.9 35.4 0.00 0.00 0.00 30 1011.9
20260507182014 20 266 17.7 32.2 0.00 0.00 0.00 31 1011.7
20260507181554 20 273 24.1 30.6 0.00 0.00 0.00 32 1011.8
20260507181019 19 300 19.3 35.4 0.00 0.00 0.00 33 1011.9
20260507180512 20 309 25.7 35.4 0.00 0.00 0.00 32 1012.0
20260507180045 20 312 22.5 38.6 0.00 0.00 0.00 32 1011.9
20260507175515 20 335 25.7 38.6 0.00 0.00 0.00 33 1012.1
20260507175014 19 272 20.9 30.6 0.00 0.00 0.00 33 1012.0
20260507174556 19 298 16.1 33.8 0.00 0.00 0.00 34 1012.2
20260507174019 19 278 24.1 33.8 0.00 0.00 0.00 34 1012.1
20260507173515 19 288 17.7 33.8 0.00 0.00 0.00 34 1012.1
20260507173040 20 295 25.7 37.0 0.00 0.00 0.00 34 1012.1
20260507172515 20 272 24.1 40.2 0.00 0.00 0.00 34 1012.1
20260507172011 19 342 24.1 40.2 0.00 0.00 0.00 35 1012.1
20260507171554 19 284 24.1 40.2 0.00 0.00 0.00 34 1012.2
20260507171016 19 314 20.9 37.0 0.00 0.00 0.00 35 1012.1
20260507170517 19 275 25.7 37.0 0.00 0.00 0.00 35 1012.0
20260507170044 18 302 20.9 33.8 0.00 0.00 0.00 36 1012.1
20260507165517 18 278 22.5 33.8 0.00 0.00 0.00 36 1012.3
20260507165015 18 281 19.3 29.0 0.00 0.00 0.00 36 1012.2
20260507164555 18 284 16.1 29.0 0.00 0.00 0.00 38 1012.4
20260507164014 18 306 19.3 29.0 0.00 0.00 0.00 37 1012.3
20260507163514 18 269 19.3 32.2 0.00 0.00 0.00 36 1012.3
20260507163048 18 299 19.3 33.8 0.00 0.00 0.00 36 1012.1
20260507162518 18 286 14.5 30.6 0.00 0.00 0.00 36 1012.2
20260507162016 18 302 22.5 30.6 0.00 0.00 0.00 36 1012.1
20260507161601 18 269 16.1 27.4 0.00 0.00 0.00 38 1012.3
20260507161016 17 275 14.5 24.1 0.00 0.00 0.00 38 1012.1
20260507160517 17 319 9.7 24.1 0.00 0.00 0.00 38 1012.2
20260507160046 16 235 3.2 14.5 0.00 0.00 0.00 38 1012.4
20260507155513 16 182 3.2 16.1 0.00 0.00 0.00 38 1012.5
20260507155012 15 227 4.8 9.7 0.00 0.00 0.00 37 1012.5
20260507154552 15 229 4.8 9.7 0.00 0.00 0.00 37 1012.5
20260507154015 14 150 1.6 8.0 0.00 0.00 0.00 36 1012.7
20260507153518 13 177 3.2 11.3 0.00 0.00 0.00 37 1012.6
20260507153059 13 225 3.2 12.9 0.00 0.00 0.00 38 1012.5
20260507152518 12 238 3.2 11.3 0.00 0.00 0.00 37 1012.7
20260507152019 12 221 4.8 11.3 0.00 0.00 0.00 36 1012.7
20260507151551 12 206 3.2 9.7 0.00 0.00 0.00 35 1012.7
20260507151014 11 220 4.8 9.7 0.00 0.00 0.00 35 1012.7
20260507150514 11 240 6.4 9.7 0.00 0.00 0.00 34 1012.7
20260507150050 11 196 4.8 8.0 0.00 0.00 0.00 34 1012.4
20260507145514 11 256 3.2 6.4 0.00 0.00 0.00 34 1012.3
20260507145019 10 238 1.6 9.7 0.00 0.00 0.00 34 1012.3
20260507144533 10 190 6.4 14.5 0.00 0.00 0.00 34 1012.5
20260507144014 10 223 8.0 14.5 0.00 0.00 0.00 34 1012.3
20260507143519 10 232 8.0 12.9 0.00 0.00 0.00 34 1012.3
20260507143030 10 185 4.8 11.3 0.00 0.00 0.00 35 1012.3
20260507142515 9 237 6.4 9.7 0.00 0.00 0.00 37 1012.3
20260507142015 8 194 4.8 11.3 0.00 0.00 0.00 40 1012.4
20260507141612 8 234 6.4 11.3 0.00 0.00 0.00 41 1012.5
20260507141012 8 252 4.8 8.0 0.00 0.00 0.00 40 1012.6
20260507140515 8 244 4.8 9.7 0.00 0.00 0.00 39 1012.5
20260507140053 7 244 6.4 9.7 0.00 0.00 0.00 39 1012.7
20260507135514 7 227 6.4 9.7 0.00 0.00 0.00 40 1012.3
20260507135021 7 223 4.8 9.7 0.00 0.00 0.00 40 1012.2
20260507134554 7 220 6.4 9.7 0.00 0.00 0.00 41 1012.2
20260507134014 7 205 3.2 6.4 0.00 0.00 0.00 40 1012.3
20260507133514 7 235 3.2 4.8 0.00 0.00 0.00 41 1012.4
20260507133039 7 286 3.2 6.4 0.00 0.00 0.00 42 1012.2
20260507132519 6 283 3.2 6.4 0.00 0.00 0.00 43 1012.4
20260507132018 6 328 3.2 8.0 0.00 0.00 0.00 43 1012.4
20260507131533 6 328 3.2 8.0 0.00 0.00 0.00 44 1012.4
20260507131016 6 340 4.8 9.7 0.00 0.00 0.00 44 1012.4
20260507130514 6 338 4.8 12.9 0.00 0.00 0.00 44 1012.2
20260507130052 6 321 8.0 12.9 0.00 0.00 0.00 45 1012.3
20260507125515 6 322 8.0 12.9 0.00 0.00 0.00 44 1012.3
20260507125007 6 335 4.8 8.0 0.00 0.00 0.00 44 1012.1
20260507124549 6 340 6.4 9.7 0.00 0.00 0.00 43 1012.0
20260507124017 6 343 4.8 9.7 0.00 0.00 0.00 43 1011.9
20260507123515 6 352 6.4 9.7 0.00 0.00 0.00 44 1011.9
20260507123050 6 348 6.4 9.7 0.00 0.00 0.00 44 1011.9
20260507122517 6 338 4.8 8.0 0.00 0.00 0.00 44 1011.9
20260507122018 6 326 6.4 9.7 0.00 0.00 0.00 44 1011.7
20260507121552 6 339 6.4 9.7 0.00 0.00 0.00 44 1011.8
20260507121016 6 331 4.8 9.7 0.00 0.00 0.00 45 1011.8
20260507120515 6 321 3.2 8.0 0.00 0.00 0.00 45 1011.5
20260507120104 6 321 4.8 9.7 0.00 0.00 0.00 45 1011.5
20260507115516 6 311 6.4 12.9 0.00 0.00 0.00 45 1011.5
20260507115016 6 333 8.0 12.9 0.00 0.00 0.00 45 1011.5
20260507114607 6 340 6.4 9.7 0.00 0.00 0.00 46 1011.3
20260507114014 5 312 6.4 14.5 0.00 0.00 0.00 46 1011.2
20260507113520 5 286 9.7 14.5 0.00 0.00 0.00 47 1011.2
20260507113053 5 316 9.7 12.9 0.00 0.00 0.00 48 1011.3
20260507112516 5 303 6.4 11.3 0.00 0.00 0.00 48 1011.2
20260507112017 5 297 6.4 11.3 0.00 0.00 0.00 48 1011.2
20260507111555 5 312 4.8 9.7 0.00 0.00 0.00 48 1011.2
20260507111015 5 298 6.4 9.7 0.00 0.00 0.00 47 1011.1
20260507110517 5 299 8.0 12.9 0.00 0.00 0.00 47 1011.1
20260507110047 5 315 6.4 12.9 0.00 0.00 0.00 47 1011.0
20260507105515 5 327 6.4 12.9 0.00 0.00 0.00 48 1010.9
20260507105015 5 318 6.4 16.1 0.00 0.00 0.00 47 1010.9
20260507104548 5 333 6.4 14.5 0.00 0.00 0.00 46 1010.8
20260507104018 5 346 8.0 17.7 0.00 0.00 0.00 45 1010.7
20260507103515 6 333 9.7 20.9 0.00 0.00 0.00 44 1010.8
20260507103041 6 339 11.3 20.9 0.00 0.00 0.00 43 1010.8
20260507102519 6 336 11.3 17.7 0.00 0.00 0.00 42 1010.6
20260507102017 6 239 12.9 17.7 0.00 0.00 0.00 42 1010.4
20260507101602 6 240 11.3 17.7 0.00 0.00 0.00 43 1010.2
20260507101018 6 236 11.3 16.1 0.00 0.00 0.00 43 1010.2
20260507100515 6 231 11.3 16.1 0.00 0.00 0.00 44 1010.0
20260507100050 5 232 11.3 16.1 0.00 0.00 0.00 45 1010.1
20260507095517 5 223 11.3 12.9 0.00 0.00 0.00 46 1010.3
20260507095007 5 222 8.0 11.3 0.00 0.00 0.00 47 1010.2
20260507094555 4 223 6.4 9.7 0.00 0.00 0.00 48 1010.2
20260507094019 3 228 4.8 12.9 0.00 0.00 0.00 49 1010.2
20260507093518 3 230 8.0 11.3 0.00 0.00 0.00 48 1010.1
20260507093053 3 238 4.8 8.0 0.00 0.00 0.00 49 1010.1
20260507092516 3 255 4.8 9.7 0.00 0.00 0.00 49 1010.1
20260507092013 3 303 6.4 8.0 0.00 0.00 0.00 50 1010.2
20260507091528 3 283 3.2 6.4 0.00 0.00 0.00 51 1010.0
20260507091012 3 300 4.8 6.4 0.00 0.00 0.00 51 1009.9
20260507090520 3 286 3.2 4.8 0.00 0.00 0.00 50 1009.9
20260507090047 3 286 3.2 6.4 0.00 0.00 0.00 51 1010.0
20260507085520 3 259 4.8 6.4 0.00 0.00 0.00 51 1009.9
20260507085010 3 293 4.8 8.0 0.00 0.00 0.00 51 1010.1
20260507084550 4 313 4.8 8.0 0.00 0.00 0.00 50 1010.1
20260507084017 4 326 3.2 8.0 0.00 0.00 0.00 50 1010.2
20260507083519 4 298 3.2 6.4 0.00 0.00 0.00 50 1010.2
20260507083042 4 302 4.8 6.4 0.00 0.00 0.00 50 1010.2
20260507082518 5 334 3.2 6.4 0.00 0.00 0.00 50 1010.0
20260507082016 5 334 1.6 4.8 0.00 0.00 0.00 49 1010.0
20260507081550 5 334 3.2 6.4 0.00 0.00 0.00 49 1009.9
20260507081014 5 334 3.2 9.7 0.00 0.00 0.00 48 1010.0
20260507080518 6 332 6.4 12.9 0.00 0.00 0.00 48 1010.1
20260507080056 6 340 6.4 9.7 0.00 0.00 0.00 48 1010.2
20260507075510 6 339 4.8 12.9 0.00 0.00 0.00 48 1010.3
20260507075022 6 329 6.4 16.1 0.00 0.00 0.00 48 1010.2
20260507074531 6 350 11.3 19.3 0.00 0.00 0.00 48 1010.2
20260507074015 6 329 12.9 20.9 0.00 0.00 0.00 49 1010.3
20260507073520 6 325 8.0 14.5 0.00 0.00 0.00 51 1010.0
20260507073028 6 258 3.2 6.4 0.00 0.00 0.00 49 1009.7
20260507072519 6 119 1.6 4.8 0.00 0.00 0.00 49 1009.7
20260507072020 6 119 1.6 4.8 0.00 0.00 0.00 48 1009.4
20260507071549 7 119 3.2 4.8 0.00 0.00 0.00 45 1009.5
20260507071014 7 45 1.6 4.8 0.00 0.00 0.00 46 1009.4
20260507070518 8 45 1.6 6.4 0.00 0.00 0.00 45 1009.4
20260507070048 8 32 3.2 6.4 0.00 0.00 0.00 45 1009.4
20260507065514 8 32 4.8 8.0 0.00 0.00 0.00 44 1009.4
20260507065007 9 36 4.8 9.7 0.00 0.00 0.00 43 1009.2
20260507064604 10 36 6.4 9.7 0.00 0.00 0.00 41 1009.1
20260507064018 10 53 6.4 14.5 0.00 0.00 0.00 42 1009.2
20260507063518 10 37 9.7 14.5 0.00 0.00 0.00 42 1009.2
20260507063059 10 58 9.7 14.5 0.00 0.00 0.00 41 1009.4
20260507062522 10 27 8.0 19.3 0.00 0.00 0.00 41 1009.5
20260507062201 10 36 11.3 19.3 0.00 0.00 0.00 41 1009.5
20260507061546 10 326 1.6 6.4 0.00 0.00 0.00 41 1009.3
20260507061016 11 325 4.8 8.0 0.00 0.00 0.00 40 1009.6
20260507060512 11 5 4.8 9.7 0.00 0.00 0.00 39 1009.7
20260507060041 11 18 6.4 9.7 0.00 0.00 0.00 38 1009.4
20260507055516 11 26 6.4 16.1 0.00 0.00 0.00 37 1009.5
20260507055016 11 21 6.4 17.7 0.00 0.00 0.00 34 1009.6
20260507054550 11 38 11.3 17.7 0.00 0.00 0.00 34 1009.6
20260507054014 11 42 9.7 17.7 0.00 0.00 0.00 32 1009.6
20260507053515 11 43 8.0 19.3 0.00 0.00 0.00 31 1009.5
20260507053050 11 57 14.5 19.3 0.00 0.00 0.00 31 1009.4
20260507052513 12 50 9.7 27.4 0.00 0.00 0.00 30 1009.5
20260507052017 12 71 17.7 27.4 0.00 0.00 0.00 29 1009.3
20260507051549 12 69 14.5 22.5 0.00 0.00 0.00 30 1009.4
20260507051017 12 49 14.5 24.1 0.00 0.00 0.00 30 1009.5
20260507050516 13 27 17.7 24.1 0.00 0.00 0.00 30 1009.6
20260507050044 12 26 17.7 22.5 0.00 0.00 0.00 30 1009.5
20260507045514 13 34 16.1 27.4 0.00 0.00 0.00 30 1009.3
20260507045016 13 44 22.5 27.4 0.00 0.00 0.00 28 1009.2
20260507044547 13 66 12.9 16.1 0.00 0.00 0.00 28 1009.4
20260507044012 13 101 4.8 9.7 0.00 0.00 0.00 29 1009.5
20260507043514 13 162 3.2 14.5 0.00 0.00 0.00 29 1009.4
20260507043051 13 165 4.8 17.7 0.00 0.00 0.00 29 1009.3
20260507042514 13 96 12.9 17.7 0.00 0.00 0.00 28 1008.9
20260507042010 13 53 11.3 16.1 0.00 0.00 0.00 30 1008.8
20260507041553 13 84 11.3 16.1 0.00 0.00 0.00 30 1009.0
20260507041014 13 80 11.3 17.7 0.00 0.00 0.00 30 1008.9
20260507040514 13 60 12.9 25.7 0.00 0.00 0.00 30 1008.7
20260507040103 13 51 16.1 25.7 0.00 0.00 0.00 30 1008.7
20260507035513 14 51 17.7 22.5 0.00 0.00 0.00 29 1008.4
20260507035013 15 33 16.1 20.9 0.00 0.00 0.00 28 1008.5
20260507034602 14 80 11.3 17.7 0.00 0.00 0.00 28 1008.4
20260507034013 14 30 3.2 16.1 0.00 0.00 0.00 30 1008.3
20260507033518 13 89 9.7 14.5 0.00 0.00 0.00 31 1008.1
20260507033104 13 96 6.4 17.7 0.00 0.00 0.00 32 1008.0
20260507032512 13 72 12.9 17.7 0.00 0.00 0.00 33 1008.0
20260507032015 13 69 6.4 9.7 0.00 0.00 0.00 31 1008.1
20260507031551 13 111 0.0 3.2 0.00 0.00 0.00 30 1008.6
20260507031014 13 111 1.6 6.4 0.00 0.00 0.00 30 1008.3
20260507030515 13 111 1.6 6.4 0.00 0.00 0.00 29 1008.1
20260507030105 13 71 3.2 8.0 0.00 0.00 0.00 29 1007.7
20260507025513 13 71 4.8 8.0 0.00 0.00 0.00 29 1007.6
20260507025015 13 74 6.4 8.0 0.00 0.00 0.00 29 1007.5
20260507024557 13 67 4.8 8.0 0.00 0.00 0.00 29 1007.5
20260507024014 13 76 4.8 8.0 0.00 0.00 0.00 29 1007.5
20260507023514 13 63 6.4 8.0 0.00 0.00 0.00 29 1007.7
20260507023054 13 60 4.8 8.0 0.00 0.00 0.00 29 1007.9
20260507022516 14 60 4.8 8.0 0.00 0.00 0.00 28 1007.9
20260507022015 14 65 4.8 8.0 0.00 0.00 0.00 27 1007.9
20260507021601 15 65 4.8 6.4 0.00 0.00 0.00 26 1007.9
20260507021017 16 53 3.2 6.4 0.00 0.00 0.00 25 1007.9
20260507020513 16 53 3.2 8.0 0.00 0.00 0.00 24 1007.8
20260507020051 17 48 4.8 9.7 0.00 0.00 0.00 24 1007.9
20260507015516 17 46 6.4 9.7 0.00 0.00 0.00 23 1008.0
20260507015015 17 42 6.4 14.5 0.00 0.00 0.00 23 1007.9
20260507014552 18 32 9.7 14.5 0.00 0.00 0.00 22 1007.8
20260507014016 18 36 9.7 14.5 0.00 0.00 0.00 22 1007.7
20260507013515 18 60 8.0 14.5 0.00 0.00 0.00 22 1007.7
20260507013109 18 49 9.7 16.1 0.00 0.00 0.00 21 1007.8
20260507012515 19 56 9.7 16.1 0.00 0.00 0.00 21 1007.8
20260507012012 19 68 11.3 17.7 0.00 0.00 0.00 21 1007.7
20260507011527 20 41 11.3 19.3 0.00 0.00 0.00 21 1007.8
20260507011015 20 39 14.5 19.3 0.00 0.00 0.00 20 1007.8
20260507010516 20 66 12.9 19.3 0.00 0.00 0.00 21 1007.8
20260507010055 20 69 8.0 19.3 0.00 0.00 0.00 21 1007.9
20260507005516 20 49 6.4 19.3 0.00 0.00 0.00 21 1008.0
20260507005008 20 67 11.3 19.3 0.00 0.00 0.00 20 1008.0
20260507004547 20 53 9.7 19.3 0.00 0.00 0.00 20 1008.0
20260507004016 20 24 12.9 19.3 0.00 0.00 0.00 20 1008.1
20260507003516 20 18 6.4 16.1 0.00 0.00 0.00 20 1008.0
20260507003100 20 34 11.3 16.1 0.00 0.00 0.00 20 1008.1
20260507002514 20 51 9.7 17.7 0.00 0.00 0.00 20 1008.2
20260507002014 20 352 11.3 17.7 0.00 0.00 0.00 20 1008.2
20260507001613 20 45 6.4 16.1 0.00 0.00 0.00 20 1008.2
20260507001015 20 64 9.7 17.7 0.00 0.00 0.00 20 1008.3
20260507000514 20 59 6.4 19.3 0.00 0.00 0.00 20 1008.2
20260507000029 20 24 9.7 19.3 0.00 0.00 0.00 19 1008.2
20260506235515 21 14 14.5 17.7 0.00 0.00 0.00 19 1008.2
20260506235019 20 342 11.3 17.7 0.00 0.00 0.00 19 1008.3
20260506234600 20 351 8.0 25.7 0.00 0.00 0.00 19 1008.3
20260506234019 20 65 3.2 20.9 0.00 0.00 0.00 19 1008.3
20260506233514 21 342 12.9 20.9 0.00 0.00 0.00 19 1008.4
20260506233029 21 344 11.3 19.3 0.00 0.00 0.00 19 1008.5
20260506232514 21 44 9.7 20.9 0.00 0.00 0.00 19 1008.4
20260506232017 21 303 14.5 20.9 0.00 0.00 0.00 19 1008.5
20260506231525 21 335 3.2 16.1 0.00 0.00 0.00 18 1008.5
20260506231014 21 269 4.8 16.1 0.00 0.00 0.00 18 1008.5
20260506230516 21 328 9.7 19.3 0.00 0.00 0.00 19 1008.6
20260506230053 21 299 12.9 19.3 0.00 0.00 0.00 18 1008.8
20260506225516 20 317 9.7 27.4 0.00 0.00 0.00 18 1009.0
20260506225016 21 289 20.9 27.4 0.00 0.00 0.00 18 1008.9
20260506224606 20 298 11.3 25.7 0.00 0.00 0.00 18 1009.0
20260506224015 20 256 12.9 22.5 0.00 0.00 0.00 19 1009.2
20260506223515 20 247 4.8 22.5 0.00 0.00 0.00 19 1009.3
20260506223103 21 236 4.8 29.0 0.00 0.00 0.00 18 1009.5
20260506222517 20 242 14.5 29.0 0.00 0.00 0.00 19 1009.5
20260506222015 20 249 4.8 24.1 0.00 0.00 0.00 19 1009.5
20260506221552 20 262 12.9 30.6 0.00 0.00 0.00 19 1009.7
20260506221017 20 286 14.5 30.6 0.00 0.00 0.00 19 1009.7
20260506220514 20 278 11.3 25.7 0.00 0.00 0.00 19 1009.8
20260506215517 20 304 16.1 24.1 0.00 0.00 0.00 19 1010.0
20260506215014 20 292 11.3 27.4 0.00 0.00 0.00 19 1010.2
20260506214555 19 247 16.1 27.4 0.00 0.00 0.00 19 1010.2
20260506214015 19 246 9.7 22.5 0.00 0.00 0.00 19 1010.2
20260506213514 19 232 14.5 24.1 0.00 0.00 0.00 19 1010.3
20260506213049 18 250 12.9 24.1 0.00 0.00 0.00 19 1010.4
20260506212518 18 273 12.9 24.1 0.00 0.00 0.00 19 1010.4
20260506212015 18 312 4.8 24.1 0.00 0.00 0.00 18 1010.7
20260506211557 18 334 12.9 25.7 0.00 0.00 0.00 18 1010.7
20260506211014 18 229 12.9 29.0 0.00 0.00 0.00 19 1010.7
20260506210515 18 97 6.4 29.0 0.00 0.00 0.00 18 1010.8
20260506210039 18 305 4.8 19.3 0.00 0.00 0.00 18 1011.0
20260506205520 18 246 8.0 16.1 0.00 0.00 0.00 18 1011.1
20260506205014 18 178 9.7 20.9 0.00 0.00 0.00 18 1011.2
20260506204559 17 162 9.7 19.3 0.00 0.00 0.00 19 1011.2
20260506204019 17 246 8.0 20.9 0.00 0.00 0.00 18 1011.3
20260506203519 18 201 14.5 22.5 0.00 0.00 0.00 18 1011.5
20260506203104 17 152 9.7 17.7 0.00 0.00 0.00 19 1011.6
20260506202520 17 200 4.8 22.5 0.00 0.00 0.00 19 1011.7
20260506202016 17 243 12.9 30.6 0.00 0.00 0.00 19 1011.7
20260506201559 17 223 20.9 30.6 0.00 0.00 0.00 18 1011.7
20260506201016 17 213 17.7 24.1 0.00 0.00 0.00 18 1011.7
20260506200517 16 189 12.9 25.7 0.00 0.00 0.00 19 1012.0
20260506200056 17 264 14.5 27.4 0.00 0.00 0.00 18 1012.0
20260506195522 17 256 17.7 27.4 0.00 0.00 0.00 18 1012.1
20260506195015 16 218 11.3 30.6 0.00 0.00 0.00 19 1012.2
20260506194601 16 282 11.3 30.6 0.00 0.00 0.00 18 1012.3
20260506194020 16 251 11.3 30.6 0.00 0.00 0.00 19 1012.3
20260506193517 16 233 9.7 29.0 0.00 0.00 0.00 18 1012.4
20260506193027 16 234 19.3 29.0 0.00 0.00 0.00 19 1012.5
20260506192511 16 224 14.5 22.5 0.00 0.00 0.00 18 1012.6
20260506192008 16 169 4.8 22.5 0.00 0.00 0.00 19 1012.7
20260506191557 16 174 11.3 53.1 0.00 0.00 0.00 19 1012.6
20260506191018 15 157 12.9 53.1 0.00 0.00 0.00 20 1012.8
20260506190519 15 164 9.7 22.5 0.00 0.00 0.00 20 1013.0
20260506190105 15 167 12.9 22.5 0.00 0.00 0.00 20 1013.3